Location: Góry Miechowskie
(50.3599°N, 20.1803°E)
Time: 01:40:32
(UTC+00:00)

S-56A Canister/Altair - Pass Details

Date: 21 September 2024
Orbit: 636 x 2487 km, 38.9° (Epoch: 15 October)

Event Time Altitude Azimuth Distance (km) Brightness Sun altitude
Rises 18:13:06 0° 254° (WSW) 3,210 11.6 -15.6°
Reaches altitude 10° 18:15:32 10° 242° (WSW) 2,438 10.7 -15.9°
Maximum altitude 18:20:23 29° 183° (S) 1,785 9.2 -16.6°
Enters shadow 18:24:01 19° 142° (SE) 2,469 9.6 -17.2°
Drops below altitude 10° 18:26:57 10° 128° (SE) 3,360 - -17.6°
Sets 18:30:56 0° 119° (ESE) 4,675 - -18.2°
